TAP5496 KMSP-LPPT

Flight info

Callsign TAP5496
Flight time N/A
Altitude 35000
Route WLSTN7 GRB DCT SSM DCT OBRET DCT MIILS N371B JOOPY/M083F370 DCT 4840N DCT 4630N DCT 44N022W DCT DETOX/N0477F370 DCT ASMAR DCT LAZET
Aircraft A339/H-SADE1E2E3GHIJ3J5M1P2RWXY/LB2D1

Departure

Time 2026-04-30 19:37
Airport Minneapolis–Saint Paul International Airport / Wold–Chamberlain Field (KMSP)

Arrival

Time N/A
Airport Lisbon Humberto Delgado Airport (LPPT)
Time Latitude Longitude Altitude Speed Heading
2026-04-30 18:20 44.88169 -93.21357 831 ft 0 kts 86°
2026-04-30 19:20 44.88169 -93.21361 831 ft 3 kts 86°
2026-04-30 19:20 44.88164 -93.21436 823 ft 4 kts 87°
2026-04-30 19:21 44.88163 -93.21472 823 ft 4 kts 105°
2026-04-30 19:21 44.88182 -93.21521 822 ft 0 kts 148°
2026-04-30 19:27 44.88175 -93.21515 826 ft 3 kts 148°
2026-04-30 19:28 44.88142 -93.21491 829 ft 8 kts 154°
2026-04-30 19:28 44.88013 -93.21344 829 ft 15 kts 127°
2026-04-30 19:29 44.87895 -93.21071 828 ft 16 kts 116°
2026-04-30 19:29 44.87836 -93.20943 824 ft 15 kts 121°
2026-04-30 19:30 44.87670 -93.20558 829 ft 15 kts 118°
2026-04-30 19:30 44.87559 -93.20311 830 ft 15 kts 122°
2026-04-30 19:31 44.87463 -93.20079 828 ft 8 kts 128°
2026-04-30 19:31 44.87445 -93.20071 830 ft 0 kts 165°
2026-04-30 19:33 44.87444 -93.20071 825 ft 1 kts 165°
2026-04-30 19:34 44.87431 -93.20074 825 ft 2 kts 187°
2026-04-30 19:34 44.87418 -93.20087 829 ft 2 kts 209°
2026-04-30 19:34 44.87387 -93.20111 827 ft 5 kts 209°
2026-04-30 19:35 44.87373 -93.20159 831 ft 6 kts 268°
2026-04-30 19:35 44.87397 -93.20219 825 ft 3 kts 296°
2026-04-30 19:35 44.87397 -93.20220 825 ft 0 kts 296°
2026-04-30 19:36 44.87401 -93.20231 830 ft 3 kts 298°
2026-04-30 19:36 44.87405 -93.20238 829 ft 0 kts 300°
2026-04-30 19:36 44.87672 -93.21110 830 ft 112 kts 298°
2026-04-30 19:37 44.88240 -93.22184 825 ft 159 kts 301°
2026-04-30 19:37 44.88863 -93.23631 1154 ft 171 kts 302°
2026-04-30 19:37 44.89482 -93.25080 1695 ft 183 kts 303°
2026-04-30 19:37 44.90152 -93.26662 2298 ft 191 kts 303°
2026-04-30 19:38 44.90860 -93.28331 2765 ft 209 kts 303°
2026-04-30 19:38 44.91757 -93.29988 3280 ft 218 kts 317°
2026-04-30 19:38 44.93041 -93.31253 3720 ft 232 kts 335°
2026-04-30 19:38 44.94634 -93.31928 4157 ft 246 kts 351°
2026-04-30 19:39 44.96379 -93.31662 4605 ft 262 kts 18°
2026-04-30 19:39 44.97915 -93.30165 4897 ft 286 kts 47°
2026-04-30 19:39 44.98834 -93.27580 5281 ft 307 kts 75°
2026-04-30 19:39 44.98838 -93.24641 5661 ft 290 kts 100°
2026-04-30 19:40 44.98176 -93.22069 5992 ft 277 kts 117°
2026-04-30 19:40 44.97351 -93.19577 6349 ft 282 kts 102°
2026-04-30 19:40 44.97224 -93.16867 6967 ft 276 kts 79°
2026-04-30 19:40 44.97835 -93.14338 7516 ft 271 kts 55°
2026-04-30 19:41 44.99058 -93.12346 8077 ft 268 kts 38°
2026-04-30 19:41 45.00474 -93.10605 8602 ft 271 kts 38°
2026-04-30 19:41 45.01841 -93.08749 9189 ft 275 kts 43°
2026-04-30 19:41 45.03102 -93.06736 9737 ft 279 kts 47°
2026-04-30 19:42 45.04312 -93.04572 10260 ft 285 kts 49°
2026-04-30 19:42 45.05563 -93.02239 10400 ft 302 kts 50°
2026-04-30 19:42 45.06838 -92.99815 10555 ft 318 kts 51°
2026-04-30 19:42 45.08188 -92.97249 10784 ft 330 kts 50°
2026-04-30 19:43 45.09574 -92.94624 11245 ft 334 kts 50°
2026-04-30 19:43 45.10974 -92.91970 11731 ft 337 kts 50°
2026-04-30 19:43 45.12388 -92.89298 12230 ft 340 kts 50°
2026-04-30 19:44 45.15267 -92.83875 13212 ft 347 kts 50°
2026-04-30 19:44 45.16706 -92.81163 13703 ft 350 kts 50°
2026-04-30 19:44 45.18178 -92.78383 14156 ft 353 kts 51°
2026-04-30 19:44 45.19663 -92.75573 14616 ft 356 kts 51°
2026-04-30 19:45 45.21153 -92.72754 15053 ft 358 kts 51°
2026-04-30 19:45 45.22149 -92.70867 15356 ft 360 kts 51°
2026-04-30 19:45 45.23979 -92.66851 15926 ft 366 kts 60°
2026-04-30 19:45 45.25034 -92.63545 16367 ft 370 kts 67°
2026-04-30 19:46 45.25845 -92.60105 16798 ft 374 kts 72°
2026-04-30 19:46 45.26438 -92.56479 17226 ft 378 kts 78°
2026-04-30 19:46 45.26749 -92.54043 17492 ft 380 kts 78°
2026-04-30 19:46 45.27253 -92.50347 17886 ft 383 kts 77°
2026-04-30 19:47 45.27784 -92.46622 18325 ft 386 kts 77°
2026-04-30 19:47 45.28323 -92.42876 18680 ft 389 kts 77°
2026-04-30 19:47 45.28863 -92.39113 19067 ft 391 kts 77°
2026-04-30 19:47 45.29406 -92.35310 19430 ft 394 kts 77°
2026-04-30 19:48 45.29948 -92.31486 19812 ft 396 kts 77°
2026-04-30 19:48 45.30490 -92.27637 20190 ft 399 kts 77°
2026-04-30 19:48 45.31034 -92.23752 20576 ft 402 kts 77°
2026-04-30 19:48 45.31580 -92.19842 20953 ft 404 kts 77°
2026-04-30 19:49 45.32129 -92.15906 21318 ft 407 kts 77°
2026-04-30 19:49 45.33225 -92.08013 22090 ft 412 kts 77°
2026-04-30 19:49 45.33779 -92.03999 22469 ft 415 kts 77°
2026-04-30 19:50 45.34333 -91.99973 22853 ft 417 kts 77°
2026-04-30 19:50 45.34893 -91.95894 23261 ft 420 kts 77°
2026-04-30 19:50 45.35453 -91.91807 23648 ft 423 kts 77°
2026-04-30 19:50 45.36016 -91.87684 23979 ft 425 kts 77°
2026-04-30 19:51 45.36579 -91.83548 24324 ft 427 kts 77°
2026-04-30 19:51 45.37143 -91.79388 24643 ft 429 kts 77°
2026-04-30 19:51 45.37709 -91.75208 24976 ft 432 kts 77°
2026-04-30 19:51 45.38276 -91.71004 25299 ft 434 kts 77°
2026-04-30 19:52 45.38845 -91.66775 25634 ft 436 kts 77°
2026-04-30 19:52 45.39416 -91.62519 25944 ft 439 kts 77°
2026-04-30 19:52 45.39988 -91.58241 26265 ft 441 kts 78°
2026-04-30 19:52 45.40552 -91.54002 26572 ft 443 kts 78°
2026-04-30 19:53 45.41125 -91.49685 26877 ft 446 kts 78°
2026-04-30 19:53 45.41703 -91.45325 27180 ft 448 kts 78°
2026-04-30 19:53 45.42281 -91.40948 27477 ft 451 kts 78°
2026-04-30 19:53 45.42860 -91.36551 27777 ft 453 kts 78°
2026-04-30 19:54 45.43439 -91.32135 28067 ft 455 kts 78°
2026-04-30 19:54 45.44022 -91.27687 28347 ft 458 kts 78°
2026-04-30 19:54 45.44605 -91.23217 28643 ft 460 kts 78°
2026-04-30 19:54 45.45183 -91.18776 28932 ft 462 kts 78°
2026-04-30 19:55 45.45794 -91.14277 29197 ft 463 kts 75°
2026-04-30 19:55 45.46567 -91.09804 29443 ft 465 kts 75°
2026-04-30 19:55 45.47324 -91.05317 29739 ft 467 kts 75°
2026-04-30 19:55 45.48085 -91.00794 30014 ft 469 kts 75°
2026-04-30 19:56 45.48853 -90.96255 30264 ft 472 kts 75°
2026-04-30 19:56 45.49628 -90.91703 30498 ft 474 kts 75°
2026-04-30 19:56 45.50408 -90.87121 30727 ft 476 kts 75°
2026-04-30 19:56 45.51192 -90.82521 30957 ft 478 kts 75°
2026-04-30 19:57 45.51977 -90.77894 31186 ft 481 kts 75°
2026-04-30 19:57 45.52764 -90.73240 31404 ft 483 kts 75°
2026-04-30 19:57 45.53541 -90.68628 31623 ft 485 kts 75°
2026-04-30 19:57 45.54329 -90.63924 31843 ft 488 kts 75°
2026-04-30 19:58 45.55119 -90.59200 32050 ft 490 kts 75°
2026-04-30 19:58 45.55909 -90.54462 32264 ft 492 kts 75°
2026-04-30 19:58 45.56703 -90.49685 32460 ft 494 kts 75°
2026-04-30 19:58 45.57495 -90.44903 32648 ft 496 kts 75°
2026-04-30 19:59 45.58280 -90.40152 32813 ft 498 kts 75°
2026-04-30 19:59 45.59076 -90.35328 32969 ft 500 kts 75°
2026-04-30 19:59 45.60666 -90.25644 33272 ft 502 kts 75°
2026-04-30 20:00 45.61462 -90.20775 33405 ft 504 kts 75°
2026-04-30 20:00 45.62258 -90.15891 33507 ft 505 kts 75°
2026-04-30 20:00 45.63051 -90.11013 33641 ft 506 kts 75°
2026-04-30 20:00 45.63848 -90.06093 33795 ft 506 kts 75°
2026-04-30 20:01 45.65420 -89.96347 34074 ft 506 kts 75°
2026-04-30 20:01 45.66211 -89.91426 34193 ft 506 kts 75°
2026-04-30 20:01 45.66997 -89.86519 34323 ft 506 kts 75°
2026-04-30 20:02 45.68561 -89.76708 34569 ft 506 kts 75°
2026-04-30 20:02 45.69343 -89.71786 34682 ft 506 kts 76°
2026-04-30 20:03 45.70897 -89.61957 34907 ft 506 kts 76°
2026-04-30 20:03 45.71660 -89.57104 35023 ft 506 kts 76°
2026-04-30 20:03 45.73200 -89.47276 35052 ft 505 kts 76°
2026-04-30 20:04 45.74733 -89.37432 35052 ft 505 kts 76°
2026-04-30 20:05 45.77011 -89.22690 35069 ft 504 kts 76°
2026-04-30 20:05 45.79260 -89.08008 35065 ft 505 kts 76°
2026-04-30 20:06 45.80757 -88.98161 35075 ft 505 kts 76°
2026-04-30 20:06 45.82245 -88.88303 35076 ft 505 kts 76°
2026-04-30 20:07 45.83716 -88.78504 35090 ft 505 kts 76°
2026-04-30 20:08 45.85915 -88.63737 35087 ft 505 kts 76°
2026-04-30 20:08 45.87372 -88.53878 35075 ft 505 kts 77°
2026-04-30 20:09 45.88819 -88.44021 35074 ft 504 kts 77°
2026-04-30 20:09 45.90963 -88.29294 35059 ft 504 kts 77°
2026-04-30 20:10 45.93099 -88.14486 35051 ft 504 kts 77°
2026-04-30 20:11 45.95213 -87.99683 35064 ft 503 kts 77°
2026-04-30 20:11 45.96611 -87.89824 35069 ft 503 kts 77°
2026-04-30 20:12 45.98678 -87.75106 35062 ft 503 kts 77°
2026-04-30 20:13 46.00052 -87.65243 35076 ft 503 kts 77°
2026-04-30 20:13 46.01420 -87.55366 35086 ft 502 kts 77°
2026-04-30 20:14 46.02769 -87.45555 35087 ft 502 kts 77°
2026-04-30 20:14 46.04118 -87.35679 35082 ft 502 kts 78°
2026-04-30 20:15 46.05459 -87.25794 35086 ft 502 kts 78°
2026-04-30 20:15 46.06781 -87.15974 35091 ft 502 kts 78°
2026-04-30 20:16 46.08103 -87.06094 35094 ft 502 kts 78°
2026-04-30 20:16 46.09416 -86.96212 35095 ft 502 kts 78°
2026-04-30 20:17 46.10722 -86.86315 35086 ft 501 kts 78°
2026-04-30 20:17 46.12008 -86.76502 35085 ft 501 kts 78°
2026-04-30 20:18 46.13296 -86.66602 35078 ft 501 kts 78°
2026-04-30 20:18 46.14565 -86.56778 35071 ft 501 kts 78°
2026-04-30 20:19 46.15835 -86.46873 35063 ft 501 kts 78°
2026-04-30 20:19 46.17096 -86.36979 35059 ft 501 kts 78°
2026-04-30 20:20 46.18345 -86.27097 35054 ft 500 kts 78°
2026-04-30 20:20 46.19585 -86.17216 35056 ft 500 kts 79°
2026-04-30 20:21 46.20809 -86.07395 35051 ft 500 kts 79°
2026-04-30 20:21 46.22032 -85.97506 35056 ft 500 kts 79°
2026-04-30 20:22 46.23245 -85.87623 35051 ft 500 kts 79°
2026-04-30 20:22 46.24450 -85.77735 35043 ft 499 kts 79°
2026-04-30 20:23 46.25646 -85.67842 35036 ft 499 kts 79°
2026-04-30 20:23 46.26834 -85.57944 35030 ft 499 kts 79°
2026-04-30 20:24 46.28003 -85.48119 35028 ft 499 kts 79°
2026-04-30 20:24 46.29174 -85.38213 35024 ft 499 kts 79°
2026-04-30 20:25 46.30906 -85.23422 35031 ft 498 kts 79°
2026-04-30 20:26 46.32623 -85.08581 35041 ft 498 kts 79°
2026-04-30 20:26 46.34319 -84.93739 35048 ft 498 kts 80°
2026-04-30 20:27 46.36554 -84.73915 35033 ft 498 kts 80°
2026-04-30 20:28 46.38750 -84.54142 35023 ft 498 kts 80°
2026-04-30 20:30 46.41425 -84.29353 35013 ft 499 kts 82°
2026-04-30 20:31 46.44465 -83.99433 35008 ft 500 kts 81°
2026-04-30 20:32 46.46966 -83.74523 35004 ft 499 kts 81°
2026-04-30 20:33 46.48429 -83.59576 35002 ft 498 kts 82°
2026-04-30 20:34 46.49708 -83.46316 35006 ft 498 kts 82°
2026-04-30 20:35 46.51131 -83.31370 35001 ft 497 kts 82°
2026-04-30 20:35 46.52524 -83.16505 35001 ft 497 kts 82°
2026-04-30 20:36 46.53448 -83.06542 35002 ft 497 kts 82°
2026-04-30 20:37 46.54812 -82.91646 34997 ft 497 kts 82°
2026-04-30 20:37 46.55714 -82.81682 34991 ft 496 kts 83°
2026-04-30 20:38 46.56606 -82.71720 34992 ft 496 kts 83°
2026-04-30 20:38 46.57488 -82.61764 34993 ft 496 kts 83°
2026-04-30 20:39 46.58792 -82.46877 34990 ft 496 kts 83°
2026-04-30 20:40 46.60081 -82.31926 34990 ft 496 kts 83°
2026-04-30 20:40 46.60923 -82.22023 34987 ft 496 kts 83°
2026-04-30 20:41 46.62178 -82.07079 34986 ft 495 kts 84°
2026-04-30 20:41 46.63002 -81.97126 34990 ft 495 kts 84°
2026-04-30 20:42 46.63818 -81.87171 34988 ft 495 kts 84°
2026-04-30 20:43 46.65021 -81.72290 34991 ft 495 kts 84°
2026-04-30 20:43 46.65815 -81.62335 34987 ft 495 kts 84°
2026-04-30 20:44 46.66988 -81.47417 34987 ft 494 kts 84°
2026-04-30 20:45 46.68522 -81.27503 34981 ft 494 kts 85°
2026-04-30 20:45 46.69275 -81.17563 34975 ft 494 kts 85°
2026-04-30 20:46 46.70750 -80.97742 34960 ft 493 kts 85°
2026-04-30 20:47 46.71838 -80.82808 34953 ft 493 kts 85°
2026-04-30 20:48 46.72904 -80.67897 34958 ft 493 kts 85°
2026-04-30 20:48 46.73600 -80.58017 34963 ft 492 kts 86°
2026-04-30 20:49 46.74291 -80.48082 34971 ft 492 kts 86°
2026-04-30 20:50 46.75311 -80.33166 34985 ft 492 kts 86°
2026-04-30 20:50 46.75981 -80.23224 34988 ft 492 kts 86°
2026-04-30 20:51 46.76642 -80.13276 34986 ft 492 kts 86°
2026-04-30 20:51 46.77614 -79.98411 34991 ft 492 kts 86°
2026-04-30 20:52 46.78252 -79.88468 34992 ft 492 kts 86°
2026-04-30 20:53 46.79191 -79.73603 34993 ft 491 kts 87°
2026-04-30 20:53 46.79808 -79.63664 34990 ft 491 kts 87°
2026-04-30 20:54 46.80717 -79.48759 34985 ft 491 kts 87°
2026-04-30 20:55 46.81606 -79.33859 34978 ft 490 kts 88°
2026-04-30 20:55 46.82182 -79.24012 34987 ft 490 kts 88°
2026-04-30 20:56 46.83038 -79.09114 34971 ft 490 kts 88°
2026-04-30 20:57 46.83872 -78.94238 34979 ft 490 kts 88°
2026-04-30 20:57 46.84418 -78.84327 34974 ft 490 kts 88°
2026-04-30 20:58 46.85217 -78.69508 34963 ft 489 kts 88°
2026-04-30 20:58 46.85740 -78.59604 34969 ft 489 kts 89°
2026-04-30 20:59 46.86511 -78.44707 34966 ft 489 kts 89°
2026-04-30 21:00 46.87506 -78.24905 34962 ft 489 kts 89°
2026-04-30 21:01 46.88232 -78.10016 34955 ft 489 kts 89°
2026-04-30 21:02 46.88937 -77.95136 34949 ft 489 kts 89°
2026-04-30 21:02 46.89396 -77.85215 34950 ft 488 kts 89°
2026-04-30 21:03 46.89846 -77.75302 34943 ft 488 kts 90°
2026-04-30 21:03 46.90288 -77.65394 34944 ft 488 kts 90°
2026-04-30 21:04 46.90719 -77.55541 34938 ft 488 kts 90°
2026-04-30 21:04 46.91354 -77.40673 34932 ft 487 kts 90°
2026-04-30 21:05 46.91765 -77.30767 34929 ft 487 kts 90°
2026-04-30 21:05 46.92163 -77.20940 34930 ft 486 kts 90°
2026-04-30 21:06 46.92558 -77.11046 34923 ft 486 kts 90°
2026-04-30 21:06 46.92942 -77.01163 34919 ft 486 kts 90°
2026-04-30 21:07 46.93318 -76.91304 34917 ft 485 kts 90°
2026-04-30 21:07 46.93683 -76.81479 34916 ft 485 kts 91°
2026-04-30 21:08 46.94040 -76.71622 34917 ft 484 kts 91°
2026-04-30 21:08 46.94389 -76.61771 34910 ft 484 kts 91°
2026-04-30 21:09 46.94731 -76.51924 34912 ft 483 kts 91°
2026-04-30 21:09 46.95062 -76.42168 34900 ft 483 kts 91°
2026-04-30 21:10 46.95385 -76.32351 34903 ft 483 kts 91°
2026-04-30 21:10 46.95700 -76.22534 34904 ft 482 kts 91°
2026-04-30 21:11 46.96005 -76.12710 34905 ft 482 kts 91°
2026-04-30 21:11 46.96301 -76.02905 34904 ft 482 kts 91°
2026-04-30 21:12 46.96592 -75.93096 34904 ft 482 kts 91°
2026-04-30 21:12 46.96871 -75.83311 34904 ft 481 kts 92°
2026-04-30 21:13 46.97141 -75.73574 34904 ft 481 kts 92°
2026-04-30 21:13 46.97405 -75.63788 34900 ft 481 kts 92°
2026-04-30 21:14 46.97662 -75.53993 34898 ft 481 kts 92°
2026-04-30 21:14 46.97908 -75.44211 34898 ft 481 kts 92°
2026-04-30 21:15 46.98145 -75.34439 34892 ft 480 kts 92°
2026-04-30 21:15 46.98376 -75.24648 34897 ft 480 kts 92°
2026-04-30 21:16 46.98597 -75.14860 34884 ft 480 kts 92°
2026-04-30 21:16 46.98809 -75.05146 34882 ft 480 kts 92°
2026-04-30 21:17 46.99014 -74.95369 34882 ft 480 kts 92°
2026-04-30 21:17 46.99208 -74.85590 34891 ft 479 kts 93°
2026-04-30 21:18 46.99403 -74.75829 34882 ft 479 kts 93°
2026-04-30 21:18 46.99591 -74.66064 34881 ft 479 kts 93°
2026-04-30 21:19 46.99769 -74.56383 34871 ft 479 kts 93°
2026-04-30 21:19 46.99939 -74.46617 34863 ft 478 kts 93°
2026-04-30 21:20 47.00036 -74.38505 34862 ft 477 kts 94°
2026-04-30 21:20 47.00095 -74.28786 34859 ft 477 kts 93°
2026-04-30 21:21 47.00271 -74.19055 34853 ft 477 kts 93°
2026-04-30 21:22 47.00479 -74.04479 34841 ft 477 kts 94°
2026-04-30 21:23 47.00699 -73.85117 34833 ft 476 kts 94°
2026-04-30 21:23 47.00837 -73.70550 34829 ft 476 kts 94°
2026-04-30 21:24 47.00916 -73.60928 34828 ft 475 kts 94°
2026-04-30 21:24 47.00988 -73.51249 34820 ft 475 kts 94°
2026-04-30 21:25 47.01080 -73.36736 34820 ft 474 kts 94°
2026-04-30 21:26 47.01156 -73.22241 34809 ft 474 kts 94°
2026-04-30 21:27 47.01214 -73.07760 34798 ft 473 kts 94°
2026-04-30 21:27 47.01242 -72.98169 34796 ft 473 kts 94°
2026-04-30 21:28 47.01268 -72.83703 34787 ft 473 kts 94°
2026-04-30 21:29 47.01276 -72.69217 34777 ft 474 kts 94°
2026-04-30 21:30 47.01251 -72.45128 34768 ft 474 kts 95°
2026-04-30 21:31 47.01172 -72.20965 34774 ft 474 kts 95°
2026-04-30 21:32 47.01102 -72.06504 34782 ft 474 kts 95°
2026-04-30 21:32 47.01043 -71.96822 34787 ft 474 kts 95°
2026-04-30 21:33 47.00944 -71.82325 34789 ft 474 kts 95°
2026-04-30 21:34 47.00867 -71.72647 34788 ft 474 kts 95°
2026-04-30 21:34 47.00738 -71.58168 34801 ft 474 kts 95°
2026-04-30 21:35 47.00640 -71.48586 34799 ft 473 kts 95°
2026-04-30 21:35 47.00533 -71.38950 34804 ft 472 kts 95°
2026-04-30 21:36 47.00417 -71.29330 34809 ft 472 kts 96°
2026-04-30 21:37 47.00173 -71.10187 34800 ft 469 kts 96°
2026-04-30 21:37 47.00036 -71.00630 34802 ft 469 kts 96°
2026-04-30 21:38 46.99889 -70.91087 34802 ft 468 kts 96°
2026-04-30 21:38 46.99736 -70.81603 34801 ft 468 kts 96°
2026-04-30 21:39 46.99577 -70.72067 34799 ft 467 kts 96°
2026-04-30 21:39 46.99410 -70.62547 34812 ft 466 kts 97°
2026-04-30 21:40 46.99234 -70.53054 34800 ft 466 kts 97°
2026-04-30 21:40 46.99051 -70.43564 34795 ft 466 kts 97°
2026-04-30 21:41 46.98860 -70.34087 34806 ft 464 kts 97°
2026-04-30 21:41 46.98662 -70.24697 34800 ft 464 kts 97°
2026-04-30 21:42 46.98457 -70.15230 34804 ft 464 kts 97°
2026-04-30 21:42 46.98244 -70.05788 34809 ft 464 kts 97°
2026-04-30 21:43 46.98024 -69.96353 34806 ft 463 kts 97°
2026-04-30 21:43 46.97794 -69.86929 34823 ft 463 kts 97°
2026-04-30 21:44 46.97557 -69.77494 34817 ft 462 kts 97°
2026-04-30 21:44 46.97315 -69.68155 34828 ft 462 kts 97°
2026-04-30 21:45 46.97063 -69.58737 34834 ft 461 kts 97°
2026-04-30 21:45 46.96805 -69.49358 34834 ft 461 kts 97°
2026-04-30 21:46 46.96541 -69.39984 34838 ft 460 kts 97°
2026-04-30 21:46 46.96267 -69.30609 34836 ft 460 kts 98°
2026-04-30 21:47 46.95992 -69.21320 34842 ft 459 kts 98°
2026-04-30 21:47 46.95703 -69.11971 34841 ft 459 kts 98°
2026-04-30 21:48 46.95408 -69.02645 34848 ft 458 kts 98°
2026-04-30 21:48 46.95104 -68.93324 34846 ft 458 kts 98°
2026-04-30 21:49 46.94797 -68.84075 34848 ft 457 kts 98°
2026-04-30 21:49 46.94480 -68.74766 34850 ft 457 kts 98°
2026-04-30 21:50 46.94158 -68.65476 34845 ft 457 kts 98°
2026-04-30 21:50 46.93826 -68.56181 34848 ft 457 kts 98°
2026-04-30 21:51 46.93489 -68.46924 34860 ft 457 kts 98°
2026-04-30 21:51 46.93142 -68.37629 34867 ft 457 kts 98°
2026-04-30 21:52 46.92788 -68.28346 34866 ft 457 kts 98°
2026-04-30 21:52 46.92427 -68.19060 34868 ft 457 kts 98°
2026-04-30 21:53 46.92057 -68.09763 34857 ft 458 kts 98°
2026-04-30 21:53 46.91680 -68.00455 34856 ft 458 kts 98°
2026-04-30 21:54 46.91295 -67.91147 34874 ft 458 kts 98°
2026-04-30 21:54 46.90901 -67.81838 34860 ft 459 kts 98°
2026-04-30 21:55 46.90503 -67.72564 34861 ft 459 kts 98°
2026-04-30 21:55 46.90094 -67.63240 34864 ft 460 kts 99°
2026-04-30 21:56 46.89675 -67.53889 34878 ft 460 kts 98°
2026-04-30 21:56 46.89253 -67.44584 34881 ft 461 kts 98°
2026-04-30 21:57 46.88821 -67.35222 34887 ft 462 kts 98°
2026-04-30 21:57 46.88384 -67.25848 34893 ft 462 kts 98°
2026-04-30 21:58 46.87942 -67.16461 34901 ft 462 kts 98°
2026-04-30 21:58 46.87582 -67.07073 34899 ft 466 kts 93°
2026-04-30 21:59 46.88616 -66.97611 34904 ft 475 kts 79°
2026-04-30 22:00 46.91104 -66.83632 34912 ft 476 kts 80°
2026-04-30 22:00 46.93578 -66.69550 34929 ft 476 kts 79°
2026-04-30 22:01 46.95230 -66.60128 34937 ft 477 kts 79°
2026-04-30 22:01 46.96873 -66.50717 34942 ft 477 kts 79°
2026-04-30 22:02 46.98499 -66.41344 34962 ft 478 kts 79°
2026-04-30 22:02 47.00129 -66.31894 34948 ft 479 kts 79°
2026-04-30 22:03 47.01758 -66.22405 34955 ft 480 kts 79°
2026-04-30 22:03 47.03376 -66.12900 34967 ft 480 kts 80°
2026-04-30 22:04 47.04986 -66.03377 34972 ft 481 kts 79°
2026-04-30 22:05 47.07392 -65.89060 34972 ft 482 kts 79°
2026-04-30 22:05 47.08976 -65.79568 34977 ft 482 kts 79°
2026-04-30 22:06 47.10563 -65.69997 34985 ft 483 kts 79°
2026-04-30 22:06 47.12668 -65.57224 34987 ft 484 kts 79°
2026-04-30 22:07 47.14243 -65.47603 34994 ft 484 kts 79°
2026-04-30 22:07 47.15810 -65.37977 35001 ft 485 kts 79°
2026-04-30 22:08 47.17370 -65.28341 35003 ft 485 kts 79°
2026-04-30 22:08 47.18924 -65.18678 35009 ft 485 kts 79°
2026-04-30 22:09 47.20472 -65.09005 35009 ft 485 kts 79°
2026-04-30 22:09 47.22001 -64.99390 35020 ft 486 kts 79°
2026-04-30 22:10 47.23533 -64.89704 35016 ft 486 kts 79°
2026-04-30 22:10 47.25061 -64.79988 35019 ft 486 kts 79°
2026-04-30 22:11 47.27329 -64.65453 35022 ft 488 kts 79°
2026-04-30 22:12 47.28840 -64.55700 35023 ft 489 kts 79°
2026-04-30 22:12 47.30346 -64.45912 35028 ft 489 kts 79°
2026-04-30 22:13 47.31844 -64.36122 35038 ft 490 kts 79°
2026-04-30 22:13 47.33339 -64.26295 35041 ft 491 kts 79°
2026-04-30 22:14 47.34817 -64.16510 35048 ft 492 kts 79°
2026-04-30 22:14 47.36298 -64.06646 35059 ft 493 kts 79°
2026-04-30 22:15 47.37773 -63.96761 35061 ft 493 kts 79°
2026-04-30 22:15 47.39240 -63.86868 35064 ft 493 kts 79°
2026-04-30 22:16 47.40700 -63.76963 35070 ft 494 kts 79°
2026-04-30 22:17 47.43586 -63.57187 35079 ft 494 kts 79°
2026-04-30 22:17 47.45738 -63.42270 35083 ft 494 kts 79°
2026-04-30 22:18 47.47870 -63.27349 35098 ft 494 kts 79°
2026-04-30 22:19 47.49982 -63.12417 35100 ft 494 kts 79°
2026-04-30 22:20 47.52069 -62.97521 35099 ft 494 kts 79°
2026-04-30 22:20 47.54141 -62.82576 35117 ft 494 kts 80°
2026-04-30 22:21 47.55511 -62.72611 35122 ft 493 kts 80°
2026-04-30 22:21 47.56871 -62.62651 35108 ft 493 kts 80°
2026-04-30 22:22 47.58213 -62.52753 35117 ft 493 kts 80°
2026-04-30 22:22 47.59553 -62.42806 35128 ft 492 kts 80°
2026-04-30 22:23 47.60887 -62.32831 35126 ft 492 kts 80°
2026-04-30 22:23 47.62210 -62.22871 35128 ft 492 kts 80°
2026-04-30 22:24 47.63522 -62.12921 35131 ft 491 kts 80°
2026-04-30 22:24 47.64824 -62.02977 35129 ft 491 kts 80°
2026-04-30 22:25 47.66109 -61.93091 35132 ft 490 kts 80°
2026-04-30 22:25 47.67392 -61.83151 35127 ft 490 kts 81°
2026-04-30 22:26 47.69300 -61.68242 35136 ft 490 kts 81°
2026-04-30 22:27 47.70561 -61.58295 35142 ft 489 kts 81°
2026-04-30 22:27 47.72432 -61.43401 35147 ft 489 kts 81°
2026-04-30 22:28 47.74275 -61.28563 35155 ft 489 kts 81°
2026-04-30 22:29 47.76715 -61.08662 35163 ft 488 kts 82°
2026-04-30 22:31 47.80889 -60.73901 35182 ft 488 kts 82°
2026-04-30 22:32 47.83801 -60.49089 35194 ft 487 kts 82°
2026-04-30 22:33 47.86662 -60.24221 35195 ft 487 kts 82°
2026-04-30 22:35 47.89460 -59.99413 35203 ft 486 kts 82°
2026-04-30 22:36 47.92199 -59.74633 35212 ft 485 kts 83°
2026-04-30 22:37 47.94354 -59.54764 35196 ft 485 kts 83°
2026-04-30 22:38 47.96469 -59.34934 35214 ft 485 kts 83°
2026-04-30 22:39 47.98037 -59.20005 35214 ft 485 kts 83°
2026-04-30 22:40 48.01113 -58.90144 35237 ft 486 kts 83°
2026-04-30 22:41 48.03619 -58.65398 35250 ft 470 kts 85°
2026-04-30 22:43 48.06469 -58.36197 35257 ft 474 kts 85°
2026-04-30 22:44 48.08337 -58.16708 35260 ft 474 kts 86°
2026-04-30 22:45 48.11083 -57.87389 35272 ft 474 kts 86°
2026-04-30 22:47 48.13752 -57.58083 35279 ft 474 kts 86°
2026-04-30 22:48 48.15485 -57.38575 35278 ft 473 kts 86°
2026-04-30 22:49 48.18025 -57.09270 35280 ft 473 kts 86°
2026-04-30 22:51 48.20497 -56.79860 35261 ft 474 kts 86°
2026-04-30 22:52 48.21697 -56.65237 35253 ft 473 kts 86°
2026-04-30 22:53 48.23147 -56.47265 35245 ft 473 kts 86°
2026-04-30 22:53 48.24438 -56.30936 35245 ft 474 kts 86°
2026-04-30 22:55 48.26212 -56.07998 35248 ft 474 kts 86°
2026-04-30 22:56 48.27699 -55.88295 35254 ft 474 kts 86°
2026-04-30 22:57 48.29503 -55.63749 35254 ft 474 kts 85°
2026-04-30 22:58 48.30912 -55.44036 35259 ft 474 kts 85°
2026-04-30 22:59 48.32961 -55.14499 35264 ft 474 kts 85°